DECAYED

STARLINK-30459, 57927 (Decayed)

Orbit data source: Space-Track

STARLINK-30459, 57927 was a payload satellite owned by SpaceX/Seattle (US) in LEO that was launched on Sun, 24 Sep 2023 UTC via an FALCON 9 launch vehicle from the Air Force Eastern Test Range (AFETR). Payload-class satellites include a variety of spacecraft equipped with specific instruments for various scientific and technological missions. These include communications satellites like Starlink; space stations such as the ISS; scientific satellites like the Hubble; Earth observation satellites from companies like Planet Labs, Umbra, and HawkEye 360; GPS; miniature CubeSats for education and research; and military/defense satellites.

Not visible in the next 10 days
Identifier
57927, 2023-147Q
Orbit
Decayed
Country
Flag of USUS
Related business
Manufacturer
SpaceX/Seattle
Mission
Decayed Commercial Communications
Bus & Motor
STARLINK V2M, Unknown motor
Mass
730 kg wet, ~700 kg dry
Launch date (UTC)
2023-09-24 (3 years ago)
Launch vehicle
FALCON 9
Launch site
Air Force Eastern Test Range (AFETR)
Object type
Payload
Rocket body
Debris
Shape & HBR
Box + 2 Pan, 17.7 m
Radar Cross Section
33.884 m², Large (>1 m²)

Expand to show TLE details & history
Last TLE update: 5 months ago

TLE from 5 months ago
0 STARLINK-30459
1 57927U 23147Q   26015.56131009  .20033368  91102-5  27197-2 0  9997
2 57927  42.9719  68.0229 0008223 123.3118 236.8561 16.34177119130774
Epoch: 2026-01-15T13:28Z
TLE epoch observation values (Epoch: 2026-01-15T13:28:17.191Z)
Latitude
-0.00002°
Longitude
110.93808°
Altitude
184.052 km
Speed
7.796 km/s
True Right ascension
04h 32m 05s
True Declination
0° 00' 00"
Sunlit
Object was in full shadow at epoch
Visualization orbit readout
Latitude
Unknown
Longitude
Unknown
Altitude
Unknown
Speed
Unknown
Apparent Right ascension
Unknown
Apparent Declination
Unknown
Sunlit
N/A
Visualization observer readout
Local Sidereal Time
21:31:10
Azimuth
Unknown
Elevation
Unknown
Doppler factor
Unknown
Orbital elements
Apogee altitude
188.773 km
Perigee altitude
177.982 km
Semi-major axis
6,561.514 km
Eccentricity
0.00082
Inclination
42.9719°
RAAN
68.0229°
Arg. of periapsis
123.3118°
True anomaly
236.77725°
Mean anomaly
236.8561°
Eccentric anomaly
236.81667°
Mean motion
4.08354 °/min
Orbital period
88.16 mins
BSTAR
0.0027197
Loading maneuver chart data...
Computing Atmospheric mass density...
Loading historical data...
Loading historical data...
Loading historical data...
Loading historical data...
Loading historical data...
Loading historical data...
Loading historical data...

Documentation

Showing up to 5 results
|